Date String (YYYY-MM-DD hh:mm:ss) UTC,Instrument flags,Ambient pressure (hPa),Sample flow (lpm),Bypass flow (lpm),Sample temperature (°C),Ambient temperature (°C),ASC tube jacket temperature (°C),LED temperature (°C),Box temperature (°C),Sample RH (%),Span deviation,Mass concentration (μg/m³),Mass concentration (μg/m³),Mass concentration (μg/m³)
DateTimeUTC,F1_M11,P_M11,Q1_M11,Q2_M11,T1_M11,T2_M11,T3_M11,T4_M11,T5_M11,U1_M11,ZSPAN_M11,X0_M11,X2_M11,X1_M11
2021-12-09 23:00:00,,0813.5,5.00,0.00,26.5,25.7,00.0,35.4,28.3,12.4,0000.0,0013.45,0003.70,0002.38
2021-12-09 23:01:00,,0813.5,5.00,0.00,26.5,25.7,00.0,35.4,28.3,12.4,0000.0,0014.31,0003.70,0002.40
2021-12-09 23:02:00,,0813.5,5.01,0.00,26.5,25.7,00.0,35.4,28.3,12.4,0000.0,0015.36,0003.68,0002.40
2021-12-09 23:03:00,,0813.5,4.99,0.00,26.5,25.7,00.0,35.5,28.3,12.3,0000.0,0014.57,0003.70,0002.43
2021-12-09 23:04:00,,0813.5,5.02,0.00,26.5,25.7,00.0,35.5,28.3,12.3,0000.0,0014.07,0003.75,0002.45
2021-12-09 23:05:00,,0813.5,4.99,0.00,26.6,25.7,00.0,35.5,28.3,12.3,0000.0,0015.34,0003.80,0002.44
2021-12-09 23:06:00,,0813.5,4.99,0.00,26.5,25.7,00.0,35.5,28.4,12.3,0000.0,0015.80,0003.84,0002.45
2021-12-09 23:07:00,,0813.5,5.02,0.00,26.5,25.7,00.0,35.5,28.4,12.3,0000.0,0015.72,0003.85,0002.47
2021-12-09 23:08:00,,0813.5,4.98,0.00,26.5,25.7,00.0,35.5,28.3,12.3,0000.0,0016.74,0003.86,0002.48
2021-12-09 23:09:00,,0813.5,5.00,0.00,26.5,25.7,00.0,35.5,28.3,12.3,0000.0,0017.82,0003.91,0002.49
2021-12-09 23:10:00,,0813.5,4.99,0.00,26.5,25.7,00.0,35.5,28.3,12.2,0000.0,0018.16,0003.92,0002.51
2021-12-09 23:11:00,,0813.5,5.01,0.00,26.5,25.7,00.0,35.5,28.3,12.1,0000.0,0018.89,0003.99,0002.57
2021-12-09 23:12:00,,0813.5,4.99,0.00,26.5,25.7,00.0,35.5,28.3,12.1,0000.0,0019.51,0004.14,0002.61
2021-12-09 23:13:00,,0813.5,5.01,0.00,26.5,25.7,00.0,35.5,28.4,12.0,0000.0,0020.22,0004.23,0002.65
2021-12-09 23:14:00,,0813.5,4.98,0.00,26.5,25.7,00.0,35.5,28.4,12.0,0000.0,0021.75,0004.32,0002.68
2021-12-09 23:15:00,,0813.5,5.02,0.00,26.5,25.6,00.0,35.5,28.3,12.0,0000.0,0023.89,0004.43,0002.70
2021-12-09 23:16:00,,0813.5,4.98,0.00,26.5,25.7,00.0,35.5,28.3,12.0,0000.0,0025.85,0004.47,0002.75
2021-12-09 23:17:00,,0813.5,5.01,0.00,26.5,25.7,00.0,35.5,28.3,12.0,0000.0,0027.70,0004.55,0002.80
2021-12-09 23:18:00,,0813.5,5.01,0.00,26.5,25.6,00.0,35.5,28.3,12.0,0000.0,0029.78,0004.69,0002.84
2021-12-09 23:19:00,,0813.6,4.99,0.00,26.5,25.6,00.0,35.5,28.3,12.0,0000.0,0031.93,0004.90,0002.89
2021-12-09 23:20:00,,0813.6,5.01,0.00,26.5,25.6,00.0,35.4,28.3,12.0,0000.0,0034.85,0005.13,0002.95
2021-12-09 23:21:00,,0813.6,4.99,0.00,26.5,25.6,00.0,35.4,28.3,12.0,0000.0,0037.45,0005.32,0003.00
2021-12-09 23:22:00,,0813.6,5.00,0.00,26.5,25.6,00.0,35.4,28.3,12.0,0000.0,0039.44,0005.53,0003.02
2021-12-09 23:23:00,,0813.6,5.02,0.00,26.5,25.6,00.0,35.4,28.3,12.0,0000.0,0039.93,0005.62,0003.04
2021-12-09 23:24:00,,0814.0,4.99,0.00,26.5,25.6,00.0,35.4,28.3,11.9,0000.0,0039.62,0005.68,0003.05
2021-12-09 23:25:00,,0814.1,5.00,0.00,26.5,25.6,00.0,35.4,28.3,11.9,0000.0,0037.39,0005.68,0003.07
2021-12-09 23:26:00,,0814.0,5.00,0.00,26.5,25.6,00.0,35.4,28.3,11.9,0000.0,0036.09,0005.66,0003.08
2021-12-09 23:27:00,,0813.7,4.99,0.00,26.5,25.6,00.0,35.4,28.3,11.9,0000.0,0034.40,0005.65,0003.07
2021-12-09 23:28:00,,0813.6,5.01,0.00,26.5,25.6,00.0,35.4,28.2,11.9,0000.0,0032.14,0005.59,0003.07
2021-12-09 23:29:00,,0813.6,5.00,0.00,26.4,25.6,00.0,35.4,28.2,11.9,0000.0,0031.48,0005.50,0003.06
2021-12-09 23:30:00,,0814.0,5.00,0.00,26.4,25.5,00.0,35.4,28.2,11.9,0000.0,0029.41,0005.33,0003.07
2021-12-09 23:31:00,,0814.1,5.01,0.00,26.4,25.5,00.0,35.4,28.2,11.9,0000.0,0026.44,0005.16,0003.05
2021-12-09 23:32:00,,0814.0,4.99,0.00,26.4,25.5,00.0,35.4,28.2,12.0,0000.0,0023.02,0005.01,0003.03
2021-12-09 23:33:00,,0814.1,5.01,0.00,26.4,25.5,00.0,35.4,28.1,12.0,0000.0,0020.62,0004.86,0003.01
2021-12-09 23:34:00,,0814.2,4.99,0.00,26.4,25.5,00.0,35.4,28.2,12.0,0000.0,0019.93,0004.77,0003.02
2021-12-09 23:35:00,,0814.2,5.00,0.00,26.4,25.5,00.0,35.4,28.1,12.0,0000.0,0020.25,0004.75,0003.03
2021-12-09 23:36:00,,0814.3,5.01,0.00,26.4,25.5,00.0,35.3,28.1,12.0,0000.0,0021.12,0004.72,0003.03
2021-12-09 23:37:00,,0814.2,4.99,0.00,26.4,25.5,00.0,35.3,28.1,12.0,0000.0,0021.31,0004.69,0003.05
2021-12-09 23:38:00,,0814.2,5.00,0.00,26.4,25.5,00.0,35.3,28.1,12.0,0000.0,0021.33,0004.70,0003.08
2021-12-09 23:39:00,,0814.2,5.01,0.00,26.3,25.5,00.0,35.3,28.1,12.0,0000.0,0021.58,0004.79,0003.10
2021-12-09 23:40:00,,0814.1,5.00,0.00,26.3,25.5,00.0,35.3,28.1,12.0,0000.0,0020.44,0004.81,0003.14
2021-12-09 23:41:00,,0814.2,5.01,0.00,26.3,25.5,00.0,35.3,28.1,12.0,0000.0,0019.88,0004.85,0003.15
2021-12-09 23:42:00,,0814.2,5.00,0.00,26.3,25.5,00.0,35.3,28.1,12.0,0000.0,0020.51,0004.86,0003.16
2021-12-09 23:43:00,,0814.2,4.98,0.00,26.3,25.5,00.0,35.3,28.1,12.1,0000.0,0020.75,0004.88,0003.18
2021-12-09 23:44:00,,0814.3,5.01,0.00,26.3,25.4,00.0,35.3,28.1,12.1,0000.0,0021.12,0004.93,0003.23
2021-12-09 23:45:00,,0814.1,5.01,0.00,26.3,25.4,00.0,35.3,28.1,12.1,0000.0,0020.65,0004.96,0003.25
2021-12-09 23:46:00,,0813.9,5.00,0.00,26.3,25.4,00.0,35.3,28.1,12.1,0000.0,0020.96,0005.00,0003.29
2021-12-09 23:47:00,,0814.2,5.00,0.00,26.3,25.4,00.0,35.3,28.0,12.1,0000.0,0021.88,0005.12,0003.34
2021-12-09 23:48:00,,0814.0,4.99,0.00,26.3,25.4,00.0,35.3,28.0,12.1,0000.0,0022.56,0005.20,0003.38
2021-12-09 23:49:00,,0814.3,5.01,0.00,26.3,25.4,00.0,35.3,28.1,12.1,0000.0,0023.99,0005.26,0003.42
2021-12-09 23:50:00,,0814.2,4.99,0.00,26.3,25.4,00.0,35.3,28.0,12.1,0000.0,0024.29,0005.28,0003.45
2021-12-09 23:51:00,,0814.2,5.00,0.00,26.2,25.4,00.0,35.3,28.0,12.2,0000.0,0025.39,0005.32,0003.47
2021-12-09 23:52:00,,0814.2,5.00,0.00,26.2,25.4,00.0,35.2,28.0,12.2,0000.0,0025.47,0005.35,0003.49
2021-12-09 23:53:00,,0813.9,4.99,0.00,26.2,25.4,00.0,35.2,28.0,12.2,0000.0,0025.35,0005.38,0003.52
2021-12-09 23:54:00,,0814.2,5.02,0.00,26.2,25.4,00.0,35.2,28.0,12.2,0000.0,0025.27,0005.39,0003.54
2021-12-09 23:55:00,,0814.1,4.98,0.00,26.2,25.4,00.0,35.2,28.0,12.2,0000.0,0025.10,0005.38,0003.55
2021-12-09 23:56:00,,0813.8,5.02,0.00,26.2,25.4,00.0,35.2,28.0,12.2,0000.0,0024.37,0005.33,0003.56
2021-12-09 23:57:00,,0813.6,4.99,0.00,26.2,25.4,00.0,35.2,28.0,12.2,0000.0,0023.84,0005.26,0003.56
2021-12-09 23:58:00,,0813.6,5.01,0.00,26.2,25.3,00.0,35.2,27.9,12.2,0000.0,0022.45,0005.23,0003.55
2021-12-09 23:59:00,,0813.5,4.99,0.00,26.2,25.3,00.0,35.2,27.9,12.2,0000.0,0022.09,0005.22,0003.54
